Weather History for Anaktuvuk Pass, AK

Change the Weather History Date:

Monday, January 21, 2013

  Actual Average Record
Temperature  
Mean Temperature -12 °F -  
Max Temperature 0 °F -1 °F 26 °F (2014)
Min Temperature -23 °F -13 °F -43 °F (2006)
Degree Days  
Heating Degree Days 76    
Moisture  
Dew Point -22 °F    
Average Humidity 63    
Maximum Humidity 78    
Minimum Humidity 50    
Precipitation  
Precipitation 0.00 in - - ()
Sea Level Pressure  
Sea Level Pressure 30.10 in    
Wind  
Wind Speed 3 mph (North)    
Max Wind Speed 8 mph    
Max Gust Speed -    
Visibility 10 miles    
Events      
Averages and records for this station are not official NWS values.
T = Trace of Precipitation, MM = Missing Value Source: NWS Daily Summary

Daily Weather History Graph

Daily Weather History Graph

Search for Another Location

Airport:

Trip Planner

Search our weather history database for the weather conditions in past years. The results will help you decide how hot, cold, wet, or windy it might be!

Date:

Astronomy

Jan. 21, 2013 Rise Set
Actual Time 11:12 AM AKST 3:25 PM AKST
Civil Twilight 9:44 AM AKST 4:53 PM AKST
Nautical Twilight 8:28 AM AKST 6:09 PM AKST
Astronomical Twilight 7:21 AM AKST 7:16 PM AKST
Moon 10:49 AM AKST (1/21) 7:09 AM AKST (1/21)
Length of Visible Light 7h 08m
Length of Day
4h 13m
Waxing Gibbous, 76% of the Moon is Illuminated
Jan 21
Waxing Gibbous
Jan 26
Full
Feb 3
Last Quarter
Feb 9
New
Feb 17
First Quarter

Hourly Weather History & Observations

Time (AKST) Temp. Windchill Dew Point Humidity Pressure Visibility Wind Dir Wind Speed Gust Speed Precip Events Conditions
12:16 AM -2.2 °F - -16.6 °F 50% 30.04 in 10.0 mi Calm Calm - N/A   Clear
12:36 AM -0.4 °F - -5.8 °F 78% 30.04 in 10.0 mi Calm Calm - N/A   Clear
12:56 AM -0.4 °F - -11.2 °F 60% 30.04 in 10.0 mi Calm Calm - N/A   Clear
1:16 AM -0.4 °F - -9.4 °F 66% 30.05 in 10.0 mi Calm Calm - N/A   Clear
1:36 AM -2.2 °F - -11.2 °F 66% 30.05 in 10.0 mi Calm Calm - N/A   Mostly Cloudy
1:56 AM -2.2 °F - -9.4 °F 71% 30.04 in 10.0 mi Calm Calm - N/A   Overcast
2:16 AM -2.2 °F - -13.0 °F 60% 30.05 in 10.0 mi Calm Calm - N/A   Mostly Cloudy
2:36 AM -2.2 °F - -9.4 °F 71% 30.05 in 10.0 mi Calm Calm - N/A   Overcast
2:56 AM -4.0 °F -16.3 °F -14.8 °F 60% 30.06 in 10.0 mi NNE 5.8 mph - N/A   Overcast
3:16 AM -7.6 °F -20.6 °F -20.2 °F 54% 30.06 in 10.0 mi North 5.8 mph - N/A   Overcast
3:36 AM -9.4 °F -20.9 °F -18.4 °F 65% 30.06 in 10.0 mi North 4.6 mph - N/A   Overcast
3:56 AM -7.6 °F -18.8 °F -16.6 °F 65% 30.07 in 10.0 mi NNE 4.6 mph - N/A   Overcast
4:16 AM -7.6 °F -16.5 °F -16.6 °F 65% 30.07 in 10.0 mi North 3.5 mph - N/A   Overcast
4:36 AM -9.4 °F - -18.4 °F 65% 30.07 in 10.0 mi Calm Calm - N/A   Overcast
4:56 AM -7.6 °F -16.5 °F -16.6 °F 65% 30.08 in 10.0 mi NNE 3.5 mph - N/A   Overcast
5:16 AM -7.6 °F -16.5 °F -16.6 °F 65% 30.08 in 10.0 mi North 3.5 mph - N/A   Overcast
5:36 AM -7.6 °F -18.8 °F -16.6 °F 65% 30.08 in 10.0 mi North 4.6 mph - N/A   Overcast
5:56 AM -7.6 °F -22.1 °F -16.6 °F 65% 30.08 in 10.0 mi NNE 6.9 mph - N/A   Overcast
6:16 AM -7.6 °F -20.6 °F -16.6 °F 65% 30.08 in 10.0 mi North 5.8 mph - N/A   Overcast
6:36 AM -7.6 °F -18.8 °F -16.6 °F 65% 30.09 in 10.0 mi NNE 4.6 mph - N/A   Overcast
6:56 AM -7.6 °F -22.1 °F -16.6 °F 65% 30.09 in 10.0 mi NNE 6.9 mph - N/A   Overcast
7:16 AM -9.4 °F -24.3 °F -18.4 °F 65% 30.09 in 10.0 mi North 6.9 mph - N/A   Overcast
7:36 AM -9.4 °F -24.3 °F -18.4 °F 65% 30.09 in 10.0 mi North 6.9 mph - N/A   Overcast
7:56 AM -11.2 °F -23.0 °F -20.2 °F 64% 30.09 in 10.0 mi North 4.6 mph - N/A   Mostly Cloudy
8:16 AM -11.2 °F -24.8 °F -20.2 °F 64% 30.10 in 10.0 mi North 5.8 mph - N/A   Mostly Cloudy
8:36 AM -11.2 °F -24.8 °F -22.0 °F 59% 30.10 in 10.0 mi North 5.8 mph - N/A   Mostly Cloudy
8:56 AM -13.0 °F -25.1 °F -23.8 °F 59% 30.11 in 10.0 mi North 4.6 mph - N/A   Partly Cloudy
9:16 AM -14.8 °F -27.2 °F -23.8 °F 64% 30.10 in 9.0 mi North 4.6 mph - N/A   Clear
9:36 AM -14.8 °F -24.8 °F -23.8 °F 64% 30.10 in 9.0 mi North 3.5 mph - N/A   Clear
9:56 AM -14.8 °F - -25.6 °F 58% 30.11 in 8.0 mi Calm Calm - N/A   Clear
10:16 AM -14.8 °F -27.2 °F -25.6 °F 58% 30.11 in 10.0 mi NNE 4.6 mph - N/A   Clear
10:36 AM -16.6 °F -31.3 °F -25.6 °F 64% 30.11 in 10.0 mi NNE 5.8 mph - N/A   Clear
10:56 AM -16.6 °F -31.3 °F -25.6 °F 64% 30.11 in 10.0 mi North 5.8 mph - N/A   Clear
11:16 AM -16.6 °F -29.3 °F -25.6 °F 64% 30.12 in 9.0 mi North 4.6 mph - N/A   Clear
11:36 AM -16.6 °F -29.3 °F -27.4 °F 58% 30.13 in 10.0 mi North 4.6 mph - N/A   Clear
11:56 AM -18.4 °F -28.9 °F -27.4 °F 63% 30.13 in 10.0 mi North 3.5 mph - N/A   Clear
12:16 PM -18.4 °F -28.9 °F -27.4 °F 63% 30.13 in 9.0 mi North 3.5 mph - N/A   Clear
12:36 PM -16.6 °F -26.8 °F -25.6 °F 64% 30.13 in 10.0 mi North 3.5 mph - N/A   Clear
12:56 PM -16.6 °F - -27.4 °F 58% 30.13 in 10.0 mi Calm Calm - N/A   Clear
1:16 PM -18.4 °F - -29.2 °F 58% 30.13 in 10.0 mi Calm Calm - N/A   Clear
1:36 PM -18.4 °F - -27.4 °F 63% 30.12 in 10.0 mi Calm Calm - N/A   Clear
1:56 PM -18.4 °F -28.9 °F -29.2 °F 58% 30.12 in 10.0 mi NNE 3.5 mph - N/A   Clear
2:16 PM -16.6 °F -31.3 °F -25.6 °F 64% 30.12 in 7.0 mi North 5.8 mph - N/A   Clear
2:36 PM -16.6 °F - -23.8 °F 70% 30.12 in 7.0 mi Calm Calm - N/A   Clear
2:56 PM -18.4 °F - - N/A% 30.12 in 10.0 mi Calm Calm - N/A   Clear
3:16 PM -18.4 °F -31.4 °F -29.2 °F 58% 30.12 in 9.0 mi NNE 4.6 mph - N/A   Clear
3:36 PM -18.4 °F - -29.2 °F 58% 30.11 in 7.0 mi Calm Calm - N/A   Clear
3:56 PM -16.6 °F - -22.0 °F 76% 30.11 in 9.0 mi Calm Calm - N/A   Clear
4:16 PM -14.8 °F - -23.8 °F 64% 30.11 in 10.0 mi Calm Calm - N/A   Clear
4:36 PM -16.6 °F - -23.8 °F 70% 30.11 in 8.0 mi Calm Calm - N/A   Clear
4:56 PM -16.6 °F -26.8 °F -27.4 °F 58% 30.10 in 10.0 mi NNE 3.5 mph - N/A   Clear
5:16 PM -20.2 °F -35.5 °F - N/A% 30.11 in 10.0 mi North 5.8 mph - N/A   Clear
5:56 PM -18.4 °F -31.4 °F -25.6 °F 70% 30.11 in 10.0 mi North 4.6 mph - N/A   Clear
6:16 PM -18.4 °F -31.4 °F -27.4 °F 63% 30.11 in 10.0 mi North 4.6 mph - N/A   Clear
6:36 PM -18.4 °F -33.4 °F -29.2 °F 58% 30.11 in 10.0 mi NNW 5.8 mph - N/A   Clear
6:56 PM -20.2 °F -33.5 °F - N/A% 30.11 in 10.0 mi NNE 4.6 mph - N/A   Clear
7:16 PM -20.2 °F -30.9 °F -29.2 °F 63% 30.10 in 9.0 mi NNE 3.5 mph - N/A   Clear
7:36 PM -18.4 °F - -27.4 °F 63% 30.10 in 10.0 mi Calm Calm - N/A   Clear
7:56 PM -18.4 °F -31.4 °F -27.4 °F 63% 30.10 in 10.0 mi NNE 4.6 mph - N/A   Clear
8:16 PM -18.4 °F -33.4 °F -27.4 °F 63% 30.10 in 9.0 mi North 5.8 mph - N/A   Clear
8:36 PM -18.4 °F -35.1 °F -25.6 °F 70% 30.10 in 10.0 mi NNE 6.9 mph - N/A   Clear
8:56 PM -18.4 °F -36.6 °F -29.2 °F 58% 30.10 in 10.0 mi North 8.1 mph - N/A   Clear
9:16 PM -20.2 °F -37.3 °F - N/A% 30.11 in 10.0 mi North 6.9 mph - N/A   Clear
9:36 PM -20.2 °F -37.3 °F - N/A% 30.11 in 10.0 mi North 6.9 mph - N/A   Clear
9:56 PM -20.2 °F -35.5 °F - N/A% 30.11 in 10.0 mi North 5.8 mph - N/A   Clear
10:16 PM -20.2 °F -33.5 °F - N/A% 30.11 in 10.0 mi North 4.6 mph - N/A   Clear
10:36 PM -20.2 °F -35.5 °F - N/A% 30.11 in 10.0 mi North 5.8 mph - N/A   Clear
10:56 PM -20.2 °F -35.5 °F -29.2 °F 63% 30.10 in 9.0 mi North 5.8 mph - N/A   Clear
11:16 PM -22.0 °F -33.0 °F - N/A% 30.11 in 10.0 mi NNE 3.5 mph - N/A   Clear
11:36 PM -23.8 °F - - N/A% 30.10 in 5.0 mi Calm Calm - N/A   Clear
11:56 PM -23.8 °F - - N/A% 30.10 in 10.0 mi Calm Calm - N/A   Clear